Weather History for KLWD - October, 2013

Change the Weather History Date:

Wednesday, October 30, 2013

  Actual Average Record
Temperature  
Mean Temperature 58 °F 48 °F  
Max Temperature 63 °F 58 °F 76 °F (1987)
Min Temperature 53 °F 38 °F 23 °F (1991)
Degree Days  
Heating Degree Days 7 17  
Month to date heating degree days 369 366  
Since 1 July heating degree days 417 466  
Cooling Degree Days 0 0  
Month to date cooling degree days 30 11  
Year to date cooling degree days 1093 944  
Growing Degree Days 8 (Base 50)    
Moisture  
Dew Point 59 °F    
Average Humidity 95    
Maximum Humidity 100    
Minimum Humidity 90    
Precipitation  
Precipitation 2.45 in 0.10 in 2.45 in (2013)
Month to date precipitation 3.45 2.85  
Sea Level Pressure  
Sea Level Pressure 29.81 in    
Wind  
Wind Speed 8 mph (SE)    
Max Wind Speed 18 mph    
Max Gust Speed 23 mph    
Visibility 5 miles    
Events Fog , Rain , Thunderstorm    
T = Trace of Precipitation, MM = Missing Value Source: NWS Daily Summary

Daily Weather History Graph

Daily Weather History Graph

Search for Another Location

Airport or City:

Trip Planner

Search our weather history database for the weather conditions in past years. The results will help you decide how hot, cold, wet, or windy it might be!

Date:

Astronomy

Oct. 30, 2013 Rise Set
Actual Time 7:43 AM CDT 6:14 PM CDT
Civil Twilight 7:15 AM CDT 6:42 PM CDT
Nautical Twilight 6:43 AM CDT 7:14 PM CDT
Astronomical Twilight 6:11 AM CDT 7:46 PM CDT
Moon 3:32 AM CDT (10/30) 4:00 PM CDT (10/30)
Length of Visible Light 11h 26m
Length of Day
10h 30m
Waning Crescent, 17% of the Moon is Illuminated
Oct 30
Waning Crescent
Nov 3
New
Nov 9
First Quarter
Nov 17
Full
Nov 25
Last Quarter

Hourly Weather History & Observations

Time (CDT) Temp. Dew Point Humidity Pressure Visibility Wind Dir Wind Speed Gust Speed Precip Events Conditions
12:41 AM 53.6 °F 51.8 °F 94% 30.00 in 0.8 mi SE 5.8 mph - 0.01 in   Mist
12:53 AM 53.1 °F 52.0 °F 96% 30.00 in 0.8 mi ESE 4.6 mph - 0.01 in   Mist
1:53 AM 53.1 °F 52.0 °F 96% 29.99 in 0.2 mi ESE 3.5 mph - N/A Fog Fog
2:53 AM 53.1 °F 53.1 °F 100% 29.98 in 0.2 mi Calm Calm - N/A Fog Fog
3:53 AM 53.1 °F 53.1 °F 100% 29.96 in 0.2 mi Calm Calm - N/A Fog Fog
4:53 AM 54.0 °F 53.1 °F 97% 29.94 in 0.2 mi ESE 5.8 mph - N/A Fog Fog
5:53 AM 55.0 °F 54.0 °F 96% 29.96 in 0.2 mi SE 4.6 mph - N/A Fog Fog
6:53 AM 55.9 °F 55.0 °F 97% 29.96 in 0.2 mi SSE 5.8 mph - N/A Fog Fog
7:35 AM 57.2 °F 55.4 °F 94% 29.89 in 0.2 mi SE 11.5 mph - 0.00 in Fog Fog
8:53 AM 59.0 °F 57.9 °F 96% 29.89 in 0.2 mi South 5.8 mph - N/A Fog Fog
9:15 AM 60.8 °F 59.0 °F 94% 29.87 in 0.2 mi SSE 12.7 mph - N/A Fog , Thunderstorm Fog
9:27 AM 60.8 °F 60.8 °F 100% 29.90 in 2.0 mi South 5.8 mph - 0.02 in Rain , Thunderstorm Thunderstorms and Rain
9:36 AM 60.8 °F 60.8 °F 100% 29.88 in 3.0 mi SSE 3.5 mph - 0.04 in Rain , Thunderstorm Light Thunderstorms and Rain
9:44 AM 60.8 °F 60.8 °F 100% 29.87 in 1.8 mi SE 6.9 mph - 0.04 in Thunderstorm Overcast
9:53 AM 61.0 °F 60.1 °F 97% 29.87 in 1.0 mi SSE 10.4 mph 16.1 mph 0.04 in   Overcast
9:57 AM 60.8 °F 60.8 °F 100% 29.87 in 3.0 mi SSE 10.4 mph 17.3 mph 0.00 in Rain Light Rain
10:11 AM 60.8 °F 60.8 °F 100% 29.86 in 6.0 mi SSE 8.1 mph 16.1 mph 0.01 in Rain , Thunderstorm Light Rain
10:16 AM 60.8 °F 60.8 °F 100% 29.88 in 5.0 mi South 9.2 mph - 0.02 in Rain , Thunderstorm Light Rain
10:50 AM 60.8 °F 59.0 °F 94% 29.88 in 10.0 mi SSE 6.9 mph - 0.02 in   Overcast
10:53 AM 60.1 °F 59.0 °F 96% 29.87 in 10.0 mi SSE 6.9 mph - 0.02 in   Overcast
11:08 AM 60.8 °F 57.2 °F 88% 29.88 in 10.0 mi South 6.9 mph - 0.00 in Rain , Thunderstorm Light Thunderstorms and Rain
11:29 AM 60.8 °F 57.2 °F 88% 29.89 in 7.0 mi SSE 5.8 mph - 0.03 in Rain Light Rain
11:53 AM 60.1 °F 57.0 °F 90% 29.90 in 8.0 mi Variable 5.8 mph - 0.07 in Rain , Thunderstorm Light Thunderstorms and Rain
12:02 PM 60.8 °F 57.2 °F 88% 29.89 in 6.0 mi Variable 3.5 mph 21.9 mph 0.01 in Rain , Thunderstorm Thunderstorms and Rain
12:07 PM 60.8 °F 57.2 °F 88% 29.90 in 2.5 mi Variable 3.5 mph 19.6 mph 0.02 in Rain , Thunderstorm Thunderstorms and Rain
12:30 PM 60.8 °F 59.0 °F 94% 29.92 in 1.8 mi NW 9.2 mph - 0.19 in Rain , Thunderstorm Heavy Thunderstorms and Rain
12:44 PM 59.0 °F 57.2 °F 94% 29.88 in 3.0 mi NE 6.9 mph - 0.37 in Rain , Thunderstorm Light Thunderstorms and Rain
12:50 PM 59.0 °F 57.2 °F 94% 29.86 in 6.0 mi ENE 9.2 mph - 0.38 in Rain , Thunderstorm Light Thunderstorms and Rain
12:51 PM 59.0 °F 57.9 °F 96% 29.85 in 5.0 mi ENE 10.4 mph - 0.38 in Rain , Thunderstorm Light Thunderstorms and Rain
1:15 PM 60.8 °F 57.2 °F 88% 29.83 in 8.0 mi NE 10.4 mph - 0.02 in Rain Light Rain
1:33 PM 60.8 °F 57.2 °F 88% 29.84 in 10.0 mi ENE 11.5 mph - 0.03 in   Overcast
1:53 PM 59.0 °F 57.9 °F 96% 29.84 in 10.0 mi Variable 5.8 mph - 0.03 in   Overcast
2:45 PM 57.2 °F 57.2 °F 100% 29.77 in 9.0 mi East 10.4 mph 17.3 mph 0.00 in Rain , Thunderstorm Light Rain
2:53 PM 59.0 °F 57.0 °F 93% 29.80 in 7.0 mi ESE 10.4 mph 16.1 mph 0.02 in Rain , Thunderstorm Light Rain
3:04 PM 59.0 °F 57.2 °F 94% 29.80 in 10.0 mi East 9.2 mph - 0.00 in Rain Light Rain
3:26 PM 59.0 °F 57.2 °F 94% 29.80 in 9.0 mi East 6.9 mph - 0.02 in Rain Light Rain
3:53 PM 60.1 °F 57.9 °F 93% 29.78 in 5.0 mi East 11.5 mph - 0.03 in Rain Light Rain
4:34 PM 59.0 °F 57.2 °F 94% 29.76 in 10.0 mi East 8.1 mph 17.3 mph 0.02 in Rain Light Rain
4:51 PM 60.8 °F 57.2 °F 88% 29.76 in 2.0 mi East 9.2 mph - 0.11 in Rain Rain
4:53 PM 60.1 °F 57.9 °F 93% 29.77 in 2.0 mi ESE 9.2 mph - 0.12 in Rain Rain
4:57 PM 59.0 °F 57.2 °F 94% 29.76 in 1.5 mi East 6.9 mph - 0.05 in Rain Heavy Rain
5:14 PM 59.0 °F 57.2 °F 94% 29.75 in 1.2 mi East 9.2 mph - 0.29 in Rain , Thunderstorm Heavy Rain
5:33 PM 60.8 °F 59.0 °F 94% 29.76 in 1.0 mi SE 8.1 mph - 0.56 in Rain , Thunderstorm Heavy Rain
5:37 PM 60.8 °F 59.0 °F 94% 29.75 in 0.8 mi SE 5.8 mph - 0.68 in Rain , Thunderstorm Heavy Rain
5:46 PM 60.8 °F 59.0 °F 94% 29.75 in 1.5 mi ESE 5.8 mph - 0.81 in Rain , Thunderstorm Heavy Rain
5:49 PM 60.8 °F 59.0 °F 94% 29.74 in 2.0 mi ESE 4.6 mph - 0.85 in Rain Heavy Rain
5:53 PM 60.1 °F 59.0 °F 96% 29.74 in 3.0 mi SE 4.6 mph - 0.87 in Rain Rain
6:03 PM 60.8 °F 59.0 °F 94% 29.75 in 9.0 mi SE 4.6 mph - 0.03 in Rain Light Rain
6:13 PM 60.8 °F 60.8 °F 100% 29.75 in 5.0 mi Calm Calm - 0.05 in Rain , Thunderstorm Rain
6:22 PM 60.8 °F 59.0 °F 94% 29.74 in 2.5 mi SSE 6.9 mph - 0.14 in Rain Heavy Rain
6:28 PM 60.8 °F 59.0 °F 94% 29.74 in 1.8 mi SE 8.1 mph - 0.22 in Rain , Thunderstorm Heavy Thunderstorms and Rain
6:41 PM 60.8 °F 60.8 °F 100% 29.74 in 1.5 mi SE 9.2 mph - 0.55 in Rain Heavy Rain
6:48 PM 62.6 °F 60.8 °F 94% 29.73 in 3.0 mi SE 5.8 mph - 0.61 in Rain Rain
6:53 PM 62.1 °F 60.1 °F 93% 29.73 in 5.0 mi ESE 5.8 mph - 0.62 in Rain Light Rain
6:58 PM 62.6 °F 60.8 °F 94% 29.72 in 6.0 mi Variable 6.9 mph - 0.01 in Rain Light Rain
7:05 PM 62.6 °F 60.8 °F 94% 29.74 in 5.0 mi Variable 5.8 mph - 0.02 in Rain Rain
7:21 PM 62.6 °F 60.8 °F 94% 29.76 in 10.0 mi South 5.8 mph - 0.03 in Rain Light Rain
7:23 PM 62.6 °F 60.8 °F 94% 29.76 in 9.0 mi South 5.8 mph - 0.04 in Rain , Thunderstorm Light Thunderstorms and Rain
7:31 PM 62.6 °F 60.8 °F 94% 29.74 in 2.5 mi SSE 10.4 mph 17.3 mph 0.12 in Rain , Thunderstorm Heavy Thunderstorms and Rain
7:40 PM 62.6 °F 60.8 °F 94% 29.74 in 4.0 mi South 11.5 mph - 0.19 in Rain Rain
7:51 PM 62.6 °F 60.8 °F 94% 29.72 in 7.0 mi South 17.3 mph 23.0 mph 0.21 in Rain Light Rain
7:53 PM 63.0 °F 61.0 °F 93% 29.72 in 7.0 mi South 15.0 mph 23.0 mph 0.22 in Rain Light Rain
8:04 PM 62.6 °F 60.8 °F 94% 29.73 in 9.0 mi SSW 13.8 mph - 0.01 in Rain Light Rain
8:16 PM 62.6 °F 60.8 °F 94% 29.73 in 10.0 mi South 15.0 mph - 0.02 in   Overcast
8:53 PM 63.0 °F 61.0 °F 93% 29.72 in 10.0 mi SSW 11.5 mph - 0.03 in   Mostly Cloudy
9:01 PM 62.6 °F 60.8 °F 94% 29.72 in 10.0 mi South 9.2 mph - N/A   Mostly Cloudy
9:16 PM 62.6 °F 60.8 °F 94% 29.70 in 10.0 mi South 10.4 mph - N/A   Mostly Cloudy
9:44 PM 62.6 °F 60.8 °F 94% 29.70 in 10.0 mi South 11.5 mph 19.6 mph N/A   Mostly Cloudy
9:53 PM 63.0 °F 61.0 °F 93% 29.69 in 10.0 mi South 10.4 mph 19.6 mph N/A   Mostly Cloudy
10:04 PM 62.6 °F 60.8 °F 94% 29.70 in 10.0 mi South 10.4 mph - N/A   Overcast
10:19 PM 62.6 °F 60.8 °F 94% 29.70 in 10.0 mi South 13.8 mph 18.4 mph N/A   Overcast
10:53 PM 63.0 °F 61.0 °F 93% 29.68 in 10.0 mi SSW 13.8 mph 20.7 mph N/A   Overcast
11:53 PM 63.0 °F 61.0 °F 93% 29.67 in 6.0 mi SSW 12.7 mph - N/A   Overcast